Hourly Weather Godzieszowek

Today, 15 January, Friday

Time Temperature Precipitation Wind Pressure Humidity
00:00 -4°C° 0.1 mm 2 mps 741 mmHg 96%
01:00 -2°C° 0 mm 1 mps 741 mmHg 99%
02:00 -4°C° 0.1 mm 2 mps 741 mmHg 98%
03:00 -4°C° 0.1 mm 2 mps 741 mmHg 97%
04:00 -4°C° 0.1 mm 2 mps 741 mmHg 97%
05:00 -4°C° 0.2 mm 2 mps 741 mmHg 97%
06:00 -4°C° 0.2 mm 2 mps 741 mmHg 97%
07:00 -4°C° 0 mm 2 mps 741 mmHg 97%
08:00 -4°C° 0.1 mm 2 mps 742 mmHg 96%
09:00 -3°C° 0.1 mm 2 mps 742 mmHg 95%
10:00 -3°C° 0.1 mm 2 mps 743 mmHg 94%
11:00 -3°C° 0.2 mm 2 mps 742 mmHg 94%
12:00 -3°C° 0.2 mm 2 mps 742 mmHg 94%
13:00 -2°C° 0 mm 2 mps 742 mmHg 94%
14:00 -2°C° 0.5 mm 2 mps 742 mmHg 94%
15:00 -4°C° 0.5 mm 3 mps 742 mmHg 94%
16:00 -4°C° 0.5 mm 3 mps 743 mmHg 95%
17:00 -4°C° 0.2 mm 3 mps 743 mmHg 95%
18:00 -5°C° 0.2 mm 3 mps 743 mmHg 95%
19:00 -5°C° 0.2 mm 3 mps 743 mmHg 95%
20:00 -6°C° 0.2 mm 3 mps 744 mmHg 95%
21:00 -6°C° 0.2 mm 3 mps 744 mmHg 95%
22:00 -6°C° 0.2 mm 3 mps 744 mmHg 95%
23:00 -7°C° 0.1 mm 3 mps 744 mmHg 95%

Tomorrow, 16 January, Saturday

Time Temperature Precipitation Wind Pressure Humidity
00:00 -7°C° 0.1 mm 3 mps 744 mmHg 95%
01:00 -7°C° 0.1 mm 3 mps 745 mmHg 95%
02:00 -8°C° 0.1 mm 3 mps 744 mmHg 95%
03:00 -8°C° 0.1 mm 3 mps 744 mmHg 95%
04:00 -9°C° 0.1 mm 4 mps 744 mmHg 94%
05:00 -9°C° 0.1 mm 4 mps 744 mmHg 94%
06:00 -10°C° 0.1 mm 4 mps 744 mmHg 94%
07:00 -10°C° 0.1 mm 4 mps 744 mmHg 94%
08:00 -10°C° 0 mm 4 mps 744 mmHg 93%
09:00 -10°C° 0 mm 4 mps 744 mmHg 92%
10:00 -10°C° 0 mm 4 mps 744 mmHg 90%
11:00 -10°C° 0 mm 5 mps 744 mmHg 89%
12:00 -10°C° 0 mm 5 mps 744 mmHg 88%
13:00 -8°C° 0 mm 5 mps 743 mmHg 87%
14:00 -8°C° 0 mm 5 mps 743 mmHg 88%
15:00 -8°C° 0 mm 5 mps 742 mmHg 89%
16:00 -8°C° 0 mm 5 mps 742 mmHg 90%
17:00 -8°C° 0.1 mm 5 mps 742 mmHg 90%
18:00 -8°C° 0.1 mm 5 mps 742 mmHg 91%
19:00 -9°C° 0.1 mm 6 mps 741 mmHg 92%
20:00 -9°C° 0.2 mm 6 mps 741 mmHg 92%
21:00 -9°C° 0.2 mm 6 mps 741 mmHg 93%
22:00 -9°C° 0.2 mm 6 mps 741 mmHg 94%
23:00 -9°C° 0.2 mm 6 mps 741 mmHg 94%

Day after tomorrow, 17 January, Sunday

Time Temperature Precipitation Wind Pressure Humidity
00:00 -9°C° 0.2 mm 6 mps 741 mmHg 94%
01:00 -8°C° 0.2 mm 5 mps 741 mmHg 94%
02:00 -9°C° 0.3 mm 4 mps 741 mmHg 95%
03:00 -8°C° 0.3 mm 3 mps 741 mmHg 95%
04:00 -8°C° 0.3 mm 3 mps 741 mmHg 96%
05:00 -8°C° 0.2 mm 2 mps 741 mmHg 96%
06:00 -8°C° 0.2 mm 1 mps 741 mmHg 96%
07:00 -9°C° 0.2 mm 1 mps 741 mmHg 95%
08:00 -9°C° 0 mm 1 mps 742 mmHg 95%
09:00 -10°C° 0 mm 1 mps 742 mmHg 94%
10:00 -10°C° 0 mm 1 mps 742 mmHg 93%
11:00 -9°C° 0 mm 1 mps 742 mmHg 92%
12:00 -9°C° 0 mm 1 mps 742 mmHg 91%
13:00 -8°C° 0 mm 1 mps 742 mmHg 90%
14:00 -10°C° 0 mm 1 mps 742 mmHg 92%
15:00 -11°C° 0 mm 1 mps 742 mmHg 94%
16:00 -12°C° 0 mm 1 mps 742 mmHg 95%
17:00 -12°C° 0 mm 1 mps 743 mmHg 95%
18:00 -13°C° 0 mm 1 mps 743 mmHg 95%
19:00 -14°C° 0 mm 1 mps 743 mmHg 94%
20:00 -14°C° 0 mm 1 mps 744 mmHg 93%
21:00 -14°C° 0 mm 1 mps 744 mmHg 91%
22:00 -14°C° 0 mm 1 mps 744 mmHg 90%
23:00 -13°C° 0 mm 1 mps 744 mmHg 89%

18 January, Monday

Time Temperature Precipitation Wind Pressure Humidity
00:00 -13°C° 0 mm 1 mps 744 mmHg 87%
01:00 -13°C° 0 mm 1 mps 745 mmHg 85%
02:00 -13°C° 0 mm 1 mps 744 mmHg 85%
03:00 -12°C° 0 mm 1 mps 744 mmHg 84%
04:00 -12°C° 0 mm 1 mps 744 mmHg 83%
05:00 -12°C° 0 mm 1 mps 744 mmHg 82%
06:00 -12°C° 0 mm 1 mps 744 mmHg 81%
07:00 -11°C° 0 mm 1 mps 744 mmHg 80%
08:00 -10°C° 0 mm 1 mps 744 mmHg 81%
09:00 -9°C° 0 mm 1 mps 744 mmHg 82%
10:00 -8°C° 0 mm 1 mps 744 mmHg 83%
11:00 -7°C° 0.1 mm 1 mps 744 mmHg 86%
12:00 -4°C° 0.1 mm 1 mps 744 mmHg 88%
13:00 -3°C° 0.1 mm 1 mps 744 mmHg 91%
14:00 -2°C° 0.2 mm 1 mps 744 mmHg 93%
15:00 -4°C° 0.2 mm 2 mps 744 mmHg 95%
16:00 -4°C° 0.2 mm 2 mps 744 mmHg 97%
17:00 -3°C° 0.2 mm 2 mps 744 mmHg 97%
18:00 -3°C° 0.2 mm 2 mps 744 mmHg 97%
19:00 -2°C° 0.2 mm 3 mps 744 mmHg 97%
20:00 -2°C° 0.3 mm 3 mps 744 mmHg 97%
21:00 -2°C° 0.3 mm 3 mps 744 mmHg 97%
22:00 -2°C° 0.3 mm 3 mps 744 mmHg 97%
23:00 -2°C° 0.1 mm 3 mps 744 mmHg 96%

19 January, Tuesday

Time Temperature Precipitation Wind Pressure Humidity
00:00 -2°C° 0.1 mm 3 mps 744 mmHg 96%
01:00 -4°C° 0.1 mm 3 mps 744 mmHg 95%
02:00 -4°C° 0 mm 3 mps 744 mmHg 94%
03:00 -4°C° 0 mm 3 mps 744 mmHg 93%
04:00 -5°C° 0 mm 3 mps 743 mmHg 92%
05:00 -5°C° 0 mm 3 mps 743 mmHg 91%
06:00 -4°C° 0 mm 2 mps 743 mmHg 91%
07:00 -5°C° 0 mm 2 mps 743 mmHg 90%
08:00 -5°C° 0 mm 3 mps 743 mmHg 90%
09:00 -4°C° 0 mm 3 mps 743 mmHg 89%
10:00 -4°C° 0 mm 3 mps 743 mmHg 89%
11:00 -3°C° 0 mm 4 mps 742 mmHg 87%
12:00 -2°C° 0 mm 4 mps 742 mmHg 85%
13:00 -2°C° 0 mm 5 mps 741 mmHg 83%
14:00 -2°C° 0 mm 5 mps 741 mmHg 82%
15:00 -2°C° 0 mm 5 mps 740 mmHg 81%
16:00 -2°C° 0 mm 6 mps 739 mmHg 80%
17:00 -2°C° 0.1 mm 6 mps 739 mmHg 82%
18:00 -2°C° 0.1 mm 6 mps 739 mmHg 84%
19:00 -2°C° 0.1 mm 6 mps 739 mmHg 86%
20:00 -2°C° 0.1 mm 6 mps 739 mmHg 89%
21:00 -1°C° 0.1 mm 6 mps 739 mmHg 91%
22:00 0°C° 0.1 mm 5 mps 739 mmHg 93%
23:00 0°C° 0.1 mm 5 mps 738 mmHg 93%

20 January, Wednesday

Time Temperature Precipitation Wind Pressure Humidity
00:00 0°C° 0.1 mm 5 mps 738 mmHg 93%
01:00 +1°C° 0.1 mm 5 mps 738 mmHg 93%
02:00 +1°C° 0 mm 5 mps 738 mmHg 93%
03:00 +1°C° 0 mm 5 mps 738 mmHg 92%
04:00 +1°C° 0 mm 5 mps 738 mmHg 91%
05:00 +1°C° 0 mm 6 mps 737 mmHg 89%
06:00 +1°C° 0 mm 6 mps 737 mmHg 87%
07:00 0°C° 0 mm 7 mps 737 mmHg 86%
08:00 0°C° 0 mm 7 mps 737 mmHg 83%
09:00 -1°C° 0 mm 7 mps 737 mmHg 81%
10:00 -1°C° 0 mm 7 mps 737 mmHg 79%
11:00 -1°C° 0 mm 6 mps 737 mmHg 79%
12:00 -1°C° 0 mm 6 mps 737 mmHg 80%
13:00 +1°C° 0 mm 6 mps 737 mmHg 80%
14:00 +1°C° 0 mm 6 mps 737 mmHg 80%
15:00 0°C° 0 mm 5 mps 737 mmHg 81%
16:00 0°C° 0 mm 5 mps 736 mmHg 81%
17:00 0°C° 0 mm 5 mps 736 mmHg 79%
18:00 0°C° 0 mm 5 mps 736 mmHg 77%
19:00 -1°C° 0 mm 6 mps 736 mmHg 75%
20:00 -2°C° 0 mm 6 mps 736 mmHg 76%
21:00 -2°C° 0 mm 6 mps 736 mmHg 78%
22:00 -2°C° 0 mm 6 mps 736 mmHg 79%
23:00 -1°C° 0 mm 5 mps 735 mmHg 78%
Show more